Waarnemingen

Advertentie
Mijn weer
Kiruna Airport, Zweden (2044): temperatuur & dauwpunt: 10.01.2018 10:00:00 - 16.01.2018 10:00:00 (CET)Kiruna Airport, Zweden (2044): windsnelheid: 10.01.2018 10:00:00 - 16.01.2018 10:00:00 (CET)Kiruna Airport, Zweden (2044): windrichting: 10.01.2018 10:00:00 - 16.01.2018 10:00:00 (CET)Kiruna Airport, Zweden (2044): luchtdruk: 10.01.2018 10:00:00 - 16.01.2018 10:00:00 (CET)Kiruna Airport, Zweden (2044): zicht: 10.01.2018 10:00:00 - 16.01.2018 10:00:00 (CET)
Datum & Tijd tt [°C] td [°C] ff [km/u] ff [kn] dd ppp [hPa] vv [km]
16.01.2018 10:00:00 -8,0 -9,0 21 11 Z - 3,0
16.01.2018 09:00:00 -7,6 -8,5 22 12 ZZO 998,7 0,9
16.01.2018 08:00:00 -7,5 -8,7 31 17 ZZO 997,9 5
16.01.2018 07:00:00 -7,4 -8,6 35 19 ZZO 998,1 2,6
16.01.2018 06:00:00 -7,0 -8,2 29 16 Z 998,7 5
16.01.2018 05:00:00 -6,5 -7,6 35 19 Z 998,6 2,4
16.01.2018 04:00:00 -5,8 -7,0 26 14 ZZO 999,4 5
16.01.2018 03:00:00 -5,4 -6,5 28 15 ZZO 1000,4 1,0
16.01.2018 02:00:00 -5,4 -6,4 35 19 Z 1000,6 2,5
16.01.2018 01:00:00 -5,2 -6,2 35 19 Z 1001,2 5
16.01.2018 00:00:00 -5,1 -6,1 28 15 Z 1002,2 6
15.01.2018 23:00:00 -5,0 -6,1 31 17 Z 1002,5 6
15.01.2018 22:00:00 -4,9 -5,9 37 20 Z 1002,8 5
15.01.2018 21:00:00 -5,0 -5,8 39 21 Z 1003,2 4,5
15.01.2018 20:00:00 -4,9 -5,7 31 17 Z 1003,8 2,5
15.01.2018 19:00:00 -4,8 -6,0 39 21 Z 1004,7 5
15.01.2018 18:00:00 -4,9 -6,1 37 20 Z 1005,5 7
15.01.2018 17:00:00 -4,9 -6,3 35 19 Z 1006,2 8
15.01.2018 16:00:00 -5,0 -6,4 35 19 Z 1006,9 7
15.01.2018 15:00:00 -5,5 -6,6 31 17 Z 1007,2 8
15.01.2018 14:00:00 -6,3 -8,0 34 18 Z 1007,9 4,4
15.01.2018 13:00:00 -6,9 -8,6 34 18 ZZW 1009,0 3,5
15.01.2018 12:00:00 -7,2 -9,1 44 24 Z 1009,0 9
15.01.2018 11:00:00 -7,3 -9,4 39 21 Z 1009,8 4,5
15.01.2018 10:00:00 -7,7 -9,5 44 24 Z 1009,9 5
15.01.2018 09:00:00 -7,8 -10,0 41 22 ZZW 1010,1 2,9
15.01.2018 08:00:00 -7,9 -9,8 59 32 ZZW 1010,0 0,9
15.01.2018 07:00:00 -8,0 -9,6 41 22 ZZW 1010,5 3,2
15.01.2018 06:00:00 -8,2 -9,7 48 26 ZZW 1011,4 2,3
15.01.2018 05:00:00 -8,4 -9,7 42 23 Z 1011,6 1,5
15.01.2018 04:00:00 -8,5 -10,0 31 17 ZZW 1012,6 1,1
15.01.2018 03:00:00 -8,6 -10,4 31 17 ZZW 1013,6 0,3
15.01.2018 02:00:00 -8,9 -10,7 29 16 Z 1014,7 6
15.01.2018 01:00:00 -9,3 -11,1 39 21 Z 1015,3 2,3
15.01.2018 00:00:00 -10,0 -11,5 34 18 Z 1016,1 0,2
14.01.2018 23:00:00 -10,6 -12,3 37 20 ZZW 1016,7 5
14.01.2018 22:00:00 -10,7 -12,9 41 22 ZZW 1017,4 4,5
14.01.2018 21:00:00 -11,5 -13,4 37 20 Z 1017,7 10
14.01.2018 20:00:00 -12,1 -14,1 44 24 Z 1018,1 4,5
14.01.2018 19:00:00 -13,1 -15,1 46 25 ZZW 1019,0 5
14.01.2018 18:00:00 -14,7 -16,8 24 13 ZW 1020,1 10
14.01.2018 17:00:00 -16,5 -18,6 34 18 ZZW 1021,1 10
14.01.2018 16:00:00 -17,0 -19,2 21 11 Z 1021,6 10
14.01.2018 15:00:00 -16,6 -19,1 16 9 ZZO 1021,9 10
14.01.2018 14:00:00 -15,8 -18,2 26 14 Z 1022,6 10
14.01.2018 13:00:00 -14,6 -17,1 31 17 Z 1022,9 10
14.01.2018 12:00:00 -12,9 -15,8 34 18 Z 1022,7 10
14.01.2018 11:00:00 -12,8 -15,2 24 13 Z 1023,4 10
14.01.2018 10:00:00 -14,3 -16,5 8 4 Z 1023,9 10
14.01.2018 09:00:00 -13,4 -15,2 9 5 ZW 1023,9 10
14.01.2018 08:00:00 -12,9 -14,7 8 4 Z 1024,3 10
14.01.2018 07:00:00 -12,1 -13,3 5 3 Z 1024,7 10
14.01.2018 06:00:00 -14,5 -15,5 4 2 Z 1025,5 10
14.01.2018 05:00:00 -20,5 -22,4 0 0 N 1026,7 10
14.01.2018 04:00:00 -19,5 -21,2 0 0 N 1027,3 10
14.01.2018 03:00:00 -20,7 -22,7 0 0 N 1028,3 10
14.01.2018 02:00:00 -20,7 -22,7 0 0 N 1029,0 1,9
14.01.2018 01:00:00 -19,1 -20,8 0 0 N 1029,3 7
14.01.2018 00:00:00 -18,6 -20,4 0 0 N 1029,3 0,7
13.01.2018 23:00:00 -18,3 -19,9 4 2 NNW 1029,9 1,6
13.01.2018 22:00:00 -17,3 -18,7 4 2 WNW 1030,1 10
13.01.2018 21:00:00 -10,3 -11,3 11 6 WZW 1029,6 10
13.01.2018 20:00:00 -14,7 -15,8 8 4 ZW 1030,3 10
13.01.2018 19:00:00 -10,4 -10,9 8 4 - 1030,1 10
13.01.2018 18:00:00 -11,4 -12,2 4 2 NO 1030,6 10
13.01.2018 17:00:00 -6,7 -7,4 5 3 ZW 1030,4 10
13.01.2018 16:00:00 -6,8 -7,6 8 4 ZW 1030,7 10
13.01.2018 15:00:00 -7,5 -8,2 4 2 - 1031,2 10
13.01.2018 14:00:00 -9,1 -10,0 13 7 ZZW 1031,6 10
13.01.2018 13:00:00 -7,4 -10,1 11 6 ZZW 1032,1 10
13.01.2018 12:00:00 -6,0 -7,5 13 7 ZZW 1032,0 0,7
13.01.2018 11:00:00 -7,6 -9,0 15 8 ZW 1033,0 10
13.01.2018 10:00:00 -6,9 -7,8 9 5 WZW 1032,8 10
13.01.2018 09:00:00 -7,6 -8,5 2 1 W 1033,2 10
13.01.2018 08:00:00 -6,6 -7,8 4 2 ZW 1033,1 10
13.01.2018 07:00:00 -7,4 -8,5 13 7 WZW 1033,5 10
13.01.2018 06:00:00 -8,3 -9,4 9 5 WZW 1034,1 10
13.01.2018 05:00:00 -8,8 -9,9 11 6 ZW 1034,4 10
13.01.2018 04:00:00 -8,7 -9,5 16 9 ZZW 1034,8 10
13.01.2018 03:00:00 -8,1 -8,8 16 9 ZW 1035,3 10
13.01.2018 02:00:00 -6,9 -8,3 13 7 ZW 1035,0 10
13.01.2018 01:00:00 -7,5 -10,2 16 9 WZW 1035,4 10
13.01.2018 00:00:00 -6,0 -7,2 5 3 ZZW 1035,2 10
12.01.2018 23:00:00 -6,3 -8,6 18 10 ZW 1035,1 10
12.01.2018 22:00:00 -8,2 -9,5 16 9 WZW 1035,3 10
12.01.2018 21:00:00 -8,0 -8,7 15 8 ZW 1034,8 10
12.01.2018 20:00:00 -9,1 -10,0 0 0 N 1034,1 10
12.01.2018 19:00:00 -6,0 -6,8 21 11 ZW 1033,4 10
12.01.2018 18:00:00 -10,2 -11,1 0 0 N 1033,7 10
12.01.2018 17:00:00 -8,8 -9,9 8 4 O 1033,1 10
12.01.2018 16:00:00 -6,5 -7,0 16 9 ZW 1032,0 10
12.01.2018 15:00:00 -10,5 -11,4 8 4 W 1032,4 10
12.01.2018 14:00:00 -4,0 -4,3 9 5 ZZW 1031,0 10
12.01.2018 13:00:00 -11,4 -12,4 0 0 N 1031,5 10
12.01.2018 12:00:00 -13,4 -14,8 13 7 ZW 1031,1 10
12.01.2018 11:00:00 -9,7 -10,9 0 0 N 1029,8 10
12.01.2018 10:00:00 -13,0 -14,0 0 0 N 1029,6 10
12.01.2018 09:00:00 -12,8 -14,1 0 0 N 1028,9 10
12.01.2018 08:00:00 -12,2 -13,4 0 0 N 1028,4 10
12.01.2018 07:00:00 -12,3 -13,5 0 0 N 1028,2 10
12.01.2018 06:00:00 -9,1 -9,9 0 0 N 1027,5 10
12.01.2018 05:00:00 -13,6 -15,0 0 0 N 1028,0 10
12.01.2018 04:00:00 -13,3 -14,6 0 0 N 1027,9 10
12.01.2018 03:00:00 -13,3 -14,5 0 0 N 1027,9 10
12.01.2018 02:00:00 -14,8 -16,1 0 0 N 1027,9 10
12.01.2018 01:00:00 -16,3 -18,0 0 0 N 1028,0 10
12.01.2018 00:00:00 -17,6 -19,2 0 0 N 1028,2 10
11.01.2018 23:00:00 -18,5 -20,3 0 0 N 1028,0 10
11.01.2018 22:00:00 -18,2 -20,0 0 0 N 1027,6 10
11.01.2018 21:00:00 -19,0 -20,9 0 0 N 1027,6 9
11.01.2018 20:00:00 -19,5 -21,4 0 0 N 1027,3 1,0
11.01.2018 19:00:00 -19,1 -21,0 0 0 N 1027,0 1,0
11.01.2018 18:00:00 -19,7 -21,7 0 0 N 1026,9 0,3
11.01.2018 17:00:00 -18,3 -20,1 0 0 N 1026,8 1,0
11.01.2018 16:00:00 -18,4 -20,3 0 0 N 1026,8 0,3
11.01.2018 15:00:00 -17,9 -19,7 4 2 NNW 1026,5 0,4
11.01.2018 14:00:00 -17,8 -19,4 0 0 N 1026,6 1,0
11.01.2018 13:00:00 -17,8 -19,4 0 0 N 1026,8 1,2
11.01.2018 12:00:00 -16,8 -18,4 0 0 N 1026,5 5
11.01.2018 11:00:00 -17,1 -18,7 0 0 N 1026,7 10
11.01.2018 10:00:00 -15,8 -17,3 0 0 N 1026,6 1,5
11.01.2018 09:00:00 -15,6 -17,0 0 0 N 1026,4 2,0
11.01.2018 08:00:00 -15,2 -16,6 0 0 N 1026,2 10
11.01.2018 07:00:00 -14,5 -15,9 0 0 N 1025,9 0,9
11.01.2018 06:00:00 -14,6 -15,9 2 1 ZW 1025,7 0,6
11.01.2018 05:00:00 -13,4 -14,6 5 3 ZZW 1025,6 0,4
11.01.2018 04:00:00 -13,3 -14,5 4 2 ZZW 1025,6 2,1
11.01.2018 03:00:00 -11,9 -12,9 5 3 ZZW 1025,3 0,4
11.01.2018 02:00:00 -12,1 -13,1 8 4 ZW 1025,4 0,4
11.01.2018 01:00:00 -11,5 -12,4 8 4 ZZW 1025,2 0,4
11.01.2018 00:00:00 -13,1 -14,3 11 6 ZW 1025,4 10
10.01.2018 23:00:00 -12,9 -14,1 13 7 ZW 1025,6 10
10.01.2018 22:00:00 -12,2 -13,4 13 7 ZZW 1025,3 10
10.01.2018 21:00:00 -12,2 -13,4 11 6 ZZW 1025,1 10
10.01.2018 20:00:00 -11,7 -12,6 11 6 ZZW 1024,8 10
10.01.2018 19:00:00 -13,0 -14,2 9 5 ZZW 1024,8 10
10.01.2018 18:00:00 -11,7 -12,7 9 5 ZW 1024,5 10
10.01.2018 17:00:00 -12,8 -14,0 15 8 ZW 1024,6 10
10.01.2018 16:00:00 -10,6 -11,5 13 7 ZZW 1024,0 10
10.01.2018 15:00:00 -9,6 -10,4 16 9 ZW 1023,9 10
10.01.2018 14:00:00 -9,0 -9,8 11 6 ZZW 1024,0 10
10.01.2018 13:00:00 -9,8 -10,6 13 7 ZZW 1024,2 10
10.01.2018 12:00:00 -7,9 -8,4 13 7 ZZW 1023,9 10
10.01.2018 11:00:00 -7,6 -8,4 13 7 ZW 1023,9 10
10.01.2018 10:00:00 -6,5 -7,2 13 7 ZZW 1023,5 10

tt = temperatuur
td = dauwpunt
ff = windsnelheid
dd = windrichting
ppp = luchtdruk
vv = zicht

Weerstations in de omgeving